This demonstration page uses our WeatherBlox Daily Observations layout. Learn more.

Left ArrowRight Arrow

34.74481, -87.66753

Hourly Observations for July 4, 2020

Temp ( °F °C ) Dew Point ( °F °C ) Humidity (%) Winds ( mph kmh ) Pressure ( in mb ) Visibility ( mi km ) Precip ( " mm )
12:53 am 00:53 Clear 77 25 72 22.2 85 85 Calm 29.90 1013 10 16 0.00 0.00
1:53 am 01:53 Clear 75 23.9 71 21.7 88 88 Calm 29.90 1013 10 16 0.00 0.00
2:53 am 02:53 Clear 74 23.3 71 21.7 91 91 Calm 29.89 1012 10 16 0.00 0.00
3:53 am 03:53 Mostly Clear 73 22.8 70 21.1 90 90 Calm 29.88 1012 9 14 0.00 0.00
4:53 am 04:53 Mostly Clear 73 22.8 70 21.1 90 90 Calm 29.89 1012 10 16 0.00 0.00
5:53 am 05:53 Mostly Sunny 72 22.2 69 20.6 91 91 Calm 29.91 1013 8 13 0.00 0.00
6:53 am 06:53 Sunny 76 24.4 68 20 77 77 ENE 6 9 29.92 1013 10 16 0.00 0.00
7:53 am 07:53 Sunny 79 26.1 69 20.6 72 72 NE 3 6 29.93 1014 10 16 0.00 0.00
8:53 am 08:53 Sunny 82 27.8 71 21.7 69 69 ESE 5 7 29.92 1013 10 16 0.00 0.00
9:53 am 09:53 Sunny 86 30 73 22.8 65 65 S 6 9 29.92 1013 10 16 0.00 0.00
10:53 am 10:53 Sunny 89 31.7 73 22.8 59 59 Calm 29.93 1014 10 16 0.00 0.00
11:53 am 11:53 Sunny 91 32.8 73 22.8 56 56 E 6 9 29.92 1013 10 16 0.00 0.00
12:53 pm 12:53 Partly Cloudy 92 33.3 71 21.7 51 51 ENE 5 7 29.91 1013 10 16 0.00 0.00
1:53 pm 13:53 Mostly Sunny 92 33.3 70 21.1 49 49 NE 5 7 29.89 1012 10 16 0.00 0.00
2:53 pm 14:53 Mostly Cloudy 93 33.9 69 20.6 46 46 NE 3 6 29.88 1012 10 16 0.00 0.00
3:53 pm 15:53 Mostly Cloudy 91 32.8 72 22.2 54 54 SE 9 15 29.85 1011 10 16 0.00 0.00
4:53 pm 16:53 Mostly Sunny 91 32.8 70 21.1 50 50 ESE 7 11 29.84 1011 10 16 0.00 0.00
5:53 pm 17:53 Sunny 90 32.2 71 21.7 54 54 ESE 3 6 29.84 1011 10 16 0.00 0.00
6:53 pm 18:53 Mostly Sunny 86 30 73 22.8 65 65 SSE 7 11 29.87 1011 10 16 0.00 0.00
7:24 pm 19:24 Sunny with Nearby Thunderstorms 85 29.4 73 22.8 68 68 SSW 5 7 29.86 1011 10 16 0.00 0.00
7:39 pm 19:39 Mostly Sunny 84 28.9 73 22.8 70 70 SSW 7 11 29.87 1012 10 16 0.00 0.00
7:53 pm 19:53 Mostly Cloudy 84 28.9 73 22.8 70 70 SSW 5 7 29.88 1012 10 16 0.00 0.00
8:53 pm 20:53 Mostly Cloudy with Thunderstorms 82 27.8 71 21.7 69 69 SW 6 9 29.90 1012 10 16 0.00 0.00
9:14 pm 21:14 Mostly Cloudy with Nearby Thunderstorms 81 27.2 71 21.7 72 72 WSW 5 7 29.89 1012 10 16 0.00 0.00
9:33 pm 21:33 Mostly Cloudy 81 27.2 72 22.2 74 74 E 3 6 29.90 1013 10 16 0.00 0.00
9:53 pm 21:53 Cloudy 80 26.7 72 22.2 76 76 NE 6 9 29.90 1012 10 16 0.00 0.00
10:53 pm 22:53 Mostly Clear 79 26.1 73 22.8 82 82 VRB 3 6 29.90 1013 10 16 0.00 0.00
11:53 pm 23:53 Clear 77 25 74 23.3 90 90 E 5 7 29.89 1012 10 16 0.00 0.00

Powered by AerisWeather